Time,TemperatureF,DewpointF,PressureIn,WindDirection,WindDirectionDegrees,WindSpeedMPH,WindSpeedGustMPH,Humidity,HourlyPrecipIn,Conditions,Clouds,dailyrainin,SolarRadiationWatts/m^2,SoftwareType,DateUTC
2013-12-20 04:53:00,32.0,29.0,-100.00,SW,221,1.0,3.0,90,-99.99,,,0.00,0.000000,,2013-12-20 09:53:00,
2013-12-20 05:03:00,32.0,29.0,-100.00,SW,221,1.0,3.0,90,-99.99,,,0.00,0.000000,,2013-12-20 10:03:00,
2013-12-20 06:42:00,32.0,30.0,-100.00,South,189,1.0,3.0,93,-99.99,,,0.00,0.000000,,2013-12-20 11:42:00,
2013-12-20 06:53:00,32.0,30.0,-100.00,South,189,1.0,3.0,93,-99.99,,,0.00,0.000000,,2013-12-20 11:53:00,
2013-12-20 07:02:00,32.0,30.0,-100.00,South,189,1.0,3.0,93,-99.99,,,0.00,0.000000,,2013-12-20 12:02:00,
2013-12-20 07:43:00,35.0,32.0,-100.00,NW,317,2.0,4.0,87,-99.99,,,0.00,0.000000,,2013-12-20 12:43:00,
2013-12-20 07:52:00,35.0,32.0,-100.00,NW,317,2.0,4.0,87,-99.99,,,0.00,0.000000,,2013-12-20 12:52:00,
2013-12-20 08:01:00,35.0,32.0,-100.00,NW,317,2.0,4.0,87,-99.99,,,0.00,0.000000,,2013-12-20 13:01:00,
2013-12-20 08:42:00,38.0,34.0,-100.00,South,191,1.0,3.0,87,-99.99,,,0.00,1.000000,,2013-12-20 13:42:00,
2013-12-20 08:53:00,38.0,34.0,-100.00,South,191,1.0,3.0,87,-99.99,,,0.00,1.000000,,2013-12-20 13:53:00,
2013-12-20 09:02:00,38.0,34.0,-100.00,South,191,1.0,3.0,87,-99.99,,,0.00,1.000000,,2013-12-20 14:02:00,
2013-12-20 09:42:00,41.0,37.0,-100.00,South,178,1.0,3.0,84,0.00,,,0.00,28.000000,,2013-12-20 14:42:00,
2013-12-20 09:52:00,41.0,37.0,-100.00,South,178,1.0,3.0,84,0.00,,,0.00,28.000000,,2013-12-20 14:52:00,
2013-12-20 10:02:00,41.0,37.0,-100.00,South,178,1.0,3.0,84,0.00,,,0.00,28.000000,,2013-12-20 15:02:00,
2013-12-20 10:44:00,48.0,38.0,-100.00,NNW,348,1.0,4.0,67,0.00,,,0.00,105.000000,,2013-12-20 15:44:00,
2013-12-20 10:54:00,48.0,38.0,-100.00,NNW,348,1.0,4.0,67,0.00,,,0.00,105.000000,,2013-12-20 15:54:00,
2013-12-20 11:03:00,48.0,38.0,-100.00,NNW,348,1.0,4.0,67,0.00,,,0.00,105.000000,,2013-12-20 16:03:00,
2013-12-20 11:43:00,55.0,38.0,-100.00,South,191,5.0,9.0,52,0.00,,,0.00,139.000000,,2013-12-20 16:43:00,
2013-12-20 11:53:00,55.0,38.0,-100.00,South,191,5.0,9.0,52,0.00,,,0.00,139.000000,,2013-12-20 16:53:00,
2013-12-20 12:02:00,55.0,38.0,-100.00,South,191,5.0,9.0,52,0.00,,,0.00,139.000000,,2013-12-20 17:02:00,
2013-12-20 12:42:00,59.0,37.0,-100.00,SSW,201,8.0,17.0,43,0.00,,,0.00,162.000000,,2013-12-20 17:42:00,
2013-12-20 12:52:00,59.0,37.0,-100.00,SSW,201,8.0,17.0,43,0.00,,,0.00,162.000000,,2013-12-20 17:52:00,
2013-12-20 13:02:00,59.0,37.0,-100.00,SSW,201,8.0,17.0,43,0.00,,,0.00,162.000000,,2013-12-20 18:02:00,
2013-12-20 13:42:00,60.0,39.0,-100.00,SSW,197,11.0,19.0,46,0.00,,,0.00,160.000000,,2013-12-20 18:42:00,
2013-12-20 13:52:00,60.0,39.0,-100.00,SSW,197,11.0,19.0,46,0.00,,,0.00,160.000000,,2013-12-20 18:52:00,
2013-12-20 14:02:00,60.0,39.0,-100.00,SSW,197,11.0,19.0,46,0.00,,,0.00,160.000000,,2013-12-20 19:02:00,
2013-12-20 14:42:00,61.0,41.0,-100.00,South,183,11.0,18.0,47,0.00,,,0.00,212.000000,,2013-12-20 19:42:00,
2013-12-20 14:52:00,61.0,41.0,-100.00,South,183,11.0,18.0,47,0.00,,,0.00,212.000000,,2013-12-20 19:52:00,
2013-12-20 15:02:00,61.0,41.0,-100.00,South,183,11.0,18.0,47,0.00,,,0.00,212.000000,,2013-12-20 20:02:00,
2013-12-20 15:42:00,62.0,44.0,-100.00,South,190,12.0,19.0,51,0.00,,,0.00,155.000000,,2013-12-20 20:42:00,
2013-12-20 15:52:00,62.0,44.0,-100.00,South,190,12.0,19.0,51,0.00,,,0.00,155.000000,,2013-12-20 20:52:00,
2013-12-20 16:02:00,62.0,44.0,-100.00,South,190,12.0,19.0,51,0.00,,,0.00,155.000000,,2013-12-20 21:02:00,
2013-12-20 16:43:00,61.0,44.0,-100.00,South,184,8.0,20.0,53,0.00,,,0.00,141.000000,,2013-12-20 21:43:00,
2013-12-20 16:53:00,61.0,44.0,-100.00,South,184,8.0,20.0,53,0.00,,,0.00,141.000000,,2013-12-20 21:53:00,
2013-12-20 17:03:00,61.0,44.0,-100.00,South,184,8.0,20.0,53,0.00,,,0.00,141.000000,,2013-12-20 22:03:00,
2013-12-20 17:43:00,60.0,43.0,-100.00,South,182,6.0,16.0,54,0.00,,,0.00,33.000000,,2013-12-20 22:43:00,
2013-12-20 17:53:00,60.0,43.0,-100.00,South,182,6.0,16.0,54,0.00,,,0.00,33.000000,,2013-12-20 22:53:00,
2013-12-20 18:03:00,60.0,43.0,-100.00,South,182,6.0,16.0,54,0.00,,,0.00,33.000000,,2013-12-20 23:03:00,
2013-12-20 18:43:00,57.0,45.0,-100.00,South,189,1.0,8.0,63,0.00,,,0.00,2.000000,,2013-12-20 23:43:00,
2013-12-20 18:53:00,57.0,45.0,-100.00,South,189,1.0,8.0,63,0.00,,,0.00,2.000000,,2013-12-20 23:53:00,
2013-12-20 19:02:00,57.0,45.0,-100.00,South,189,1.0,8.0,63,0.00,,,0.00,2.000000,,2013-12-21 00:02:00,
2013-12-20 19:42:00,55.0,43.0,-100.00,NW,323,2.0,5.0,65,0.00,,,0.00,0.000000,,2013-12-21 00:42:00,
2013-12-20 19:52:00,55.0,43.0,-100.00,NW,323,2.0,5.0,65,0.00,,,0.00,0.000000,,2013-12-21 00:52:00,
2013-12-20 20:02:00,55.0,43.0,-100.00,NW,323,2.0,5.0,65,0.00,,,0.00,0.000000,,2013-12-21 01:02:00,
2013-12-20 20:42:00,56.0,46.0,-100.00,SSW,209,2.0,6.0,70,0.00,,,0.00,0.000000,,2013-12-21 01:42:00,
2013-12-20 20:52:00,56.0,46.0,-100.00,SSW,209,2.0,6.0,70,0.00,,,0.00,0.000000,,2013-12-21 01:52:00,
2013-12-20 21:02:00,56.0,46.0,-100.00,SSW,209,2.0,6.0,70,0.00,,,0.00,0.000000,,2013-12-21 02:02:00,
2013-12-20 21:42:00,60.0,51.0,-100.00,SSW,195,6.0,11.0,71,0.00,,,0.00,0.000000,,2013-12-21 02:42:00,
2013-12-20 21:52:00,60.0,51.0,-100.00,SSW,195,6.0,11.0,71,0.00,,,0.00,0.000000,,2013-12-21 02:52:00,
2013-12-20 22:02:00,60.0,51.0,-100.00,SSW,195,6.0,11.0,71,0.00,,,0.00,0.000000,,2013-12-21 03:02:00,
2013-12-20 22:43:00,60.0,51.0,-100.00,South,190,5.0,12.0,73,0.00,,,0.00,0.000000,,2013-12-21 03:43:00,
2013-12-20 22:53:00,60.0,51.0,-100.00,South,190,5.0,12.0,73,0.00,,,0.00,0.000000,,2013-12-21 03:53:00,
2013-12-20 23:03:00,60.0,51.0,-100.00,South,190,5.0,12.0,73,0.00,,,0.00,0.000000,,2013-12-21 04:03:00,
2013-12-20 23:43:00,60.0,52.0,-100.00,SSW,204,3.0,12.0,74,0.00,,,0.00,0.000000,,2013-12-21 04:43:00,
2013-12-20 23:53:00,60.0,52.0,-100.00,SSW,204,3.0,12.0,74,0.00,,,0.00,0.000000,,2013-12-21 04:53:00,